Regional Weather Roundup
Issued by NWS

Home | Current Version | Previous Version | Text Only | Print | Product List | Glossary Off
Versions: 1 2 3 4 5 6 7 8 9 10 11 12 13 14 15 16 17 18 19 20 21 22 23 24 25 26 27 28 29 30 31

000
ASUS45 KBOU 292207
RWRCO

WEATHER ROUNDUP FOR COLORADO
NATIONAL WEATHER SERVICE DENVER/BOULDER CO
400 PM MDT WED OCT 29 2014

NOTE: "FAIR" INDICATES FEW OR NO CLOUDS BELOW 12000 FEET WITH NO
SIGNIFICANT WEATHER AND/OR OBSTRUCTIONS TO VISIBILITY.

COZ001>005-013-030-031-292300-
...NORTHWEST COLORADO...

CITY           SKY/WX    TMP DP  RH WIND       PRES   REMARKS
CRAIG          SUNNY     61  21  21 W14       30.25S
HAYDEN         SUNNY     59  19  21 W15       30.26R
MEEKER         SUNNY     62  20  19 NW8       30.25S
MOUNT WERNER   NOT AVBL
STEAMBOAT SPGS MOSUNNY   57  21  24 W5        30.26S
WALDEN         MOSUNNY   50  18  27 SW14G23   30.28S
$$

COZ006>008-011-292300-
...WEST CENTRAL VALLEYS...

CITY           SKY/WX    TMP DP  RH WIND       PRES   REMARKS
GRAND JUNCTION SUNNY     62  14  15 NW5       30.24F
MONTROSE       SUNNY     63  17  17 N7        30.28S
EAGLE          SUNNY     61  16  17 SW25G31   30.25F
RIFLE          SUNNY     64  15  15 W13       30.22F
DELTA          SUNNY     67  13  12 SW8       30.25F
NUCLA          SUNNY     64  12  13 CALM      30.31F
$$

COZ017>023-064>068-292300-
...SOUTHWEST COLORADO...

CITY           SKY/WX    TMP DP  RH WIND       PRES   REMARKS
DURANGO        SUNNY     63  17  17 SW13G20   30.27F
CORTEZ         SUNNY     66  11  11 NW13      30.26F
PAGOSA SPRINGS SUNNY     62  11  14 SW8       30.31F
TELLURIDE      SUNNY     56   9  15 W9        30.41S
WOLF CREEK PAS SUNNY     41  12  30 SW16G22   30.49F
$$

COZ009-010-012-014-032>034-037-058>063-292300-
...CENTRAL COLORADO...

CITY           SKY/WX    TMP DP  RH WIND       PRES   REMARKS
ASPEN          SUNNY     57  16  20 NW9       30.29S
BUENA VISTA    SUNNY     63   8  11 W17G24    30.23F
COPPER MTN     SUNNY     41   7  24 W23G36    30.45R
BERTHOUD PASS  FAIR      32  28  86 MISG      30.42S
COTTONWOOD PAS SUNNY     55  -4   8 W10G17    30.35S
GUNNISON       SUNNY     61  16  17 W10G18    30.31S
KREMMLING      SUNNY     59  12  15 SW14G21     N/A
LEADVILLE      SUNNY     49  10  20 W12G22    30.36R
MONARCH PASS   SUNNY     41  10  28 W28G38    30.56S
SALIDA         SUNNY     64  10  11 W21G32    30.29S
SUNLIGHT       SUNNY     46  16  29 CALM      30.44F
WILKERSON PASS NOT AVBL
$$

COZ069>075-292300-
...SAN LUIS VALLEY/SANGRE DE CRISTO MOUNTAINS...

CITY           SKY/WX    TMP DP  RH WIND       PRES   REMARKS
ALAMOSA        SUNNY     61   6  11 E3        30.27F
LA VETA PASS   SUNNY     50  12  22 S13G21    30.34F
SAGUACHE       SUNNY     63   7  11 NW16G25   30.28F
$$

COZ035-036-038>040-292300-
...NORTHERN COLORADO FRONT RANGE...

CITY           SKY/WX    TMP DP  RH WIND       PRES   REMARKS
DENVER INTL AP MOSUNNY   70  17  13 NW8       30.09S
DMNS CITY PARK   N/A     69  16  13 NW13G28   30.07S
AURORA         MOSUNNY   68  17  14 NW17G29   30.11F
FRONT RANGE AP MOSUNNY   70  18  13 W13G22    30.10F
ERIE MUNI ARPT SUNNY     70  15  12 W22G31    30.08S
BOULDER MUN AP SUNNY     68  21  17 W22G35    30.08S
CENTENNIAL     MOSUNNY   68  14  12 N10       30.11S
BROOMFIELD     MOSUNNY   68  18  14 W23G33    30.11S
FORT COLLINS   SUNNY     70  21  16 NW3       30.09S
LONGMONT       SUNNY     73  20  13 W9        30.09R
$$

COZ041-046-047-076>085-087-088-292300-
...PIKES PEAK/PALMER DIVIDE AND SOUTHERN FOOTHILLS...

CITY           SKY/WX    TMP DP  RH WIND       PRES   REMARKS
COLO. SPRINGS  MOSUNNY   67  12  12 SE9       30.13F
A. F. ACADEMY  SUNNY     66  10  11 S9        30.14S
ELLICOTT       SUNNY     66  11  11 VRB3      30.13S
FALCON         SUNNY     64  11  12 SE6       30.17S
FORT CARSON    SUNNY     68  16  13 SE3       30.10F
LIMON          SUNNY     68  12  11 VRB5      30.09F
MONUMENT HILL  SUNNY     63  12  14 CALM      30.16S
TRINIDAD       SUNNY     71  12  10 SE5       30.11F
$$

COZ042>045-048>051-090-091-292300-
...NORTHEAST COLORADO...

CITY           SKY/WX    TMP DP  RH WIND       PRES   REMARKS
GREELEY ARPT     N/A    N/A N/A N/A MISG        N/A
AKRON          SUNNY     70  15  12 W12       30.06S
BURLINGTON     SUNNY     71  18  13 S8        30.06F
WRAY           SUNNY     76  15  10 W9        30.01F
STERLING       SUNNY     73  23  15 W15       30.01S
HOLYOKE        SUNNY     73  19  13 W14G24    30.01S
FORT MORGAN    SUNNY     71  15  12 W13       30.06S
$$

COZ086-089-092>099-292300-
...SOUTHEAST COLORADO...

CITY           SKY/WX    TMP DP  RH WIND       PRES   REMARKS
PUEBLO         SUNNY     73  12   9 SE12      30.05F
LA JUNTA       SUNNY     73  15  11 E6        30.06F
LAMAR          SUNNY     73  22  14 S8        30.04F
SPRINGFIELD      N/A     71  23  16 S10       30.08F
$$



USA.gov is the U.S. government's official web portal to all federal, state and local government web resources and services.